Location: Chamerau
(49.1969°N, 12.7525°E)
Time: 09:34:13
(UTC+00:00)

NOSS 8 (F) - Pass Details

Date: 18 September 2020
Orbit: 385 x 1787 km, 63.3° (Epoch: 27 October)

Event Time Altitude Azimuth Distance (km) Brightness Sun altitude
Rises 18:06:21 0° 225° (SW) 2,456 8.6 -9.2°
Reaches altitude 10° 18:08:33 10° 227° (SW) 1,494 7.5 -9.5°
Maximum altitude 18:11:42 73° 313° (NW) 412 4.3 -10.0°
Drops below altitude 10° 18:14:42 10° 39° (NE) 1,428 6.7 -10.5°
Sets 18:16:46 0° 41° (NE) 2,332 7.8 -10.8°
